Regional Weather Roundup
Issued by NWS Newport/Morehead, NC

Current Version | Previous Version | Graphics & Text | Print | Product List | Glossary Off
Versions: 1 2 3 4 5 6 7 8 9 10 11 12 13 14 15 16 17 18 19 20 21 22 23 24 25 26 27 28 29 30 31 32 33 34 35 36 37 38 39 40 41 42 43 44 45 46 47 48 49 50

000
ASUS42 KMHX 211213
RWRMHX
WEATHER ROUNDUP FOR EASTERN NORTH CAROLINA
NATIONAL WEATHER SERVICE NEWPORT/MOREHEAD CITY NC
800 AM EDT THU SEP 21 2017

NOTE: "FAIR" INDICATES FEW OR NO CLOUDS BELOW 12,000 FEET
WITH NO SIGNIFICANT WEATHER AND/OR OBSTRUCTIONS TO VISIBILITY

NCZ015>017-031-032-045>047-102-103-211300-
NORTH COAST

CITY           SKY/WX    TMP DP  RH WIND       PRES   REMARKS
EDENTON        SUNNY     68  66  92 CALM      30.03R
ELIZABETH CITY SUNNY     69  68  96 CALM      30.02R
KITTY HAWK     SUNNY     72  72 100 CALM      30.00R FOG
MANTEO         SUNNY     69  68  97 CALM      30.02R

$$

NCZ045>047-081-094-103-104-211300-
CENTRAL COAST

CITY           SKY/WX    TMP DP  RH WIND       PRES   REMARKS
FRISCO         SUNNY     77  75  93 CALM      30.01R FOG

$$

NCZ095-097-098-100-101-211300-
SOUTHERN COAST

CITY           SKY/WX    TMP DP  RH WIND       PRES   REMARKS
BEAUFORT       SUNNY     75  69  81 NW7       30.02R
CEDAR ISLAND   NOT AVBL
JACKSONVILLE   SUNNY     71  70  96 CALM      30.03R
PINEY ISLAND     N/A    N/A N/A N/A W5        30.01R
WILMINGTON     MOSUNNY   74  72  93 W5        30.04R


$$

NCZ011>013-027>030-043-044-078>080-089-090>093-098-211300-
COASTAL PLAIN

CITY           SKY/WX    TMP DP  RH WIND       PRES   REMARKS
AHOSKIE          N/A     66  66 100 CALM      30.03R FOG
CLINTON        SUNNY     66  66 100 CALM      30.04R
ELIZABETHTOWN  NOT AVBL
GOLDSBORO      SUNNY     68  68 100 CALM      30.02R
GREENVILLE     CLOUDY    68  68 100 CALM      30.04R FOG
HAVELOCK       SUNNY     73  69  87 W3        30.03R
KENANSVILLE    SUNNY     66  64  94 CALM      30.03S FOG
KINSTON        MOSUNNY   68  66  94 CALM      30.04R FOG
NEW BERN       SUNNY     71  69  93 CALM      30.04R FOG
RICHLANDS      SUNNY     68  67  96 CALM      30.04R FOG
ROCKY MOUNT    SUNNY     68  68 100 CALM      30.04R
WASHINGTON     MOSUNNY   69  68  96 CALM      30.03R FOG
WHITEVILLE     SUNNY     70  69  96 CALM      30.03R FOG

$$

AMZ130-135-150-152-154-156-158-170-250-252-270-ANZ085-086-088-633-658-670-211300-
MARINE OBSERVATIONS

STATION/POSITION TIME  TEMP    WIND        PRES    WAVE   SWELL
                       AIR SEA DIR/SP/G            HT/PER HT/PER
                 (UTC) (F)     (DEG/KT/KT) (MB)    (FT/S) (FT/S)
CHESAPEAKE LIGHT NOT AVBL
64 E VA BEACH    1150   70 69  320/  6/  6 1016.1    7/11   7/11
DUCK             1142   73 75  310/  5/  8 1015.8
2 E DUCK         1130      75                N/A     4/ 9   2/11
OREGON INLET     1142   72 77  290/  3/  5 1015.9
13E OREGON INLT  1148      74                N/A     5/11   5/11
HATTERAS CG      1142   75 77  340/  3/  4 1015.9
DIAMOND BUOY     1150   75 75  300/  4/  4 1015.7    4/ 9   3/ 9
CAPE LOOKOUT     1200   77     300/  8/  9 1016.2
BEAUFORT LAB     1142   75 75  320/  4/  7 1015.9
30 SE NEW RVR IN 1108   78     280/  8/ 10 1016.1
30 SE NEW RVR IN NOT AVBL
27 SE WRIGHTSVLE 1108   78 80  260/ 12/ 16 1016.3
5 SE WRIGHTSVLE  1108   76 78  280/ 10/ 14 1016.1
225 S CAPE HAT   1150   78 79   20/  2/  4 1016.7    6/11   7/11
41 SE CHARLESTON 1150   79 81  300/  6/  8 1016.5    3/11   3/11

$$



USA.gov is the U.S. government's official web portal to all federal, state and local government web resources and services.